PEGASUS DEB, 24239

Orbit data source: Space-Track

PEGASUS DEB, 24239 is space debris in LEO originally from a launch on Thu, 19 May 1994 UTC launched from the Air Force Western Test Range (AFWTR). Debris objects in space refer to the collection of defunct objects orbiting the Earth. Examples of debris include non-operational satellites, rocket bodies, and fragments generated from explosions, collisions, or faulty payload assembly.

Loading next visibility...
Identifier
24239, 1994-029LN
Orbit
LEO
Country
Flag of USUS
Related business
Manufacturer
Unknown
Mission
Spacecraft
Bus & Motor
Unknown
Mass
Unknown
Launch date (UTC)
1994-05-19 (32 years ago)
Launch vehicle
Unknown
Launch site
Air Force Western Test Range (AFWTR)
Object type
Payload
Rocket body
Debris
Shape & HBR
Unknown shape, 0.1 m
Radar Cross Section
Medium (>0.1 m² and <1 m²)

Expand to show TLE details & history
Last TLE update: 8 hours ago

TLE from 8 hours ago
0 PEGASUS DEB
1 24239U 94029LN  26236.59249183  .00003977  00000-0  42174-3 0  9991
2 24239  81.5076  87.6776 0137344 349.0940  10.7298 14.82107343586392
Epoch: 2026-08-24T14:13Z
TLE epoch observation values (Epoch: 2026-08-24T14:13:11.294Z)
Latitude
-0.00002°
Longitude
-98.49144°
Altitude
531.243 km
Speed
7.648 km/s
True Right ascension
05h 50m 42s
True Declination
0° 00' 00"
Sunlit
Object was in daylight at epoch
Visualization orbit readout
Latitude
Unknown
Longitude
Unknown
Altitude
Unknown
Speed
Unknown
Apparent Right ascension
Unknown
Apparent Declination
Unknown
Sunlit
N/A
Visualization observer readout
Local Sidereal Time
13:28:29
Azimuth
Unknown
Elevation
Unknown
Doppler factor
Unknown
Orbital elements
Apogee altitude
715.857 km
Perigee altitude
523.633 km
Semi-major axis
6,997.882 km
Eccentricity
0.01373
Inclination
81.5076°
RAAN
87.6776°
Arg. of periapsis
349.094°
True anomaly
11.02784°
Mean anomaly
10.7298°
Eccentric anomaly
10.87831°
Mean motion
3.7076 °/min
Orbital period
97.1 mins
BSTAR
0.00042174
Loading maneuver chart data...
Computing Atmospheric mass density...

Documentation

Showing up to 5 results
|